• In Russia
  • List of Countries
  • For 7 days
  • Water Temperature
  • Weather Map
  • Weather Widgets
  • user-avatar
    Login

    Hourly Weather Santa Rita

    Today, 29 January, Wednesday

    Time Temperature Precipitation Wind Pressure Humidity
    00:00 +29°C° 0 mm 2 mps 746 mmHg 51%
    01:00 +28°C° 0 mm 2 mps 746 mmHg 53%
    02:00 +28°C° 0 mm 2 mps 746 mmHg 55%
    03:00 +27°C° 0 mm 2 mps 746 mmHg 57%
    04:00 +27°C° 0 mm 2 mps 746 mmHg 60%
    05:00 +27°C° 0 mm 2 mps 747 mmHg 62%
    06:00 +27°C° 0 mm 2 mps 747 mmHg 64%
    07:00 +28°C° 0 mm 2 mps 748 mmHg 67%
    08:00 +30°C° 0 mm 2 mps 748 mmHg 60%
    09:00 +32°C° 0 mm 2 mps 749 mmHg 54%
    10:00 +36°C° 0 mm 2 mps 749 mmHg 48%
    11:00 +37°C° 0 mm 2 mps 748 mmHg 44%
    12:00 +38°C° 0 mm 2 mps 747 mmHg 39%
    13:00 +39°C° 0 mm 3 mps 746 mmHg 35%
    14:00 +39°C° 0 mm 3 mps 746 mmHg 33%
    15:00 +39°C° 0 mm 3 mps 745 mmHg 32%
    16:00 +39°C° 0 mm 3 mps 744 mmHg 31%
    17:00 +37°C° 0 mm 2 mps 745 mmHg 34%
    18:00 +35°C° 0 mm 2 mps 745 mmHg 38%
    19:00 +32°C° 0 mm 2 mps 745 mmHg 41%
    20:00 +31°C° 0 mm 2 mps 746 mmHg 42%
    21:00 +30°C° 0 mm 2 mps 746 mmHg 44%
    22:00 +30°C° 0 mm 2 mps 747 mmHg 45%
    23:00 +29°C° 0 mm 2 mps 746 mmHg 47%

    Tomorrow, 30 January, Thursday

    Time Temperature Precipitation Wind Pressure Humidity
    00:00 +29°C° 0 mm 2 mps 746 mmHg 48%
    01:00 +29°C° 0 mm 2 mps 746 mmHg 50%
    02:00 +28°C° 0 mm 2 mps 746 mmHg 54%
    03:00 +28°C° 0 mm 2 mps 746 mmHg 57%
    04:00 +28°C° 0 mm 3 mps 746 mmHg 61%
    05:00 +28°C° 0 mm 3 mps 747 mmHg 63%
    06:00 +28°C° 0 mm 3 mps 748 mmHg 65%
    07:00 +28°C° 0 mm 4 mps 748 mmHg 67%
    08:00 +30°C° 0 mm 3 mps 749 mmHg 61%
    09:00 +34°C° 0 mm 3 mps 749 mmHg 56%
    10:00 +36°C° 0 mm 3 mps 749 mmHg 50%
    11:00 +37°C° 0 mm 2 mps 748 mmHg 47%
    12:00 +37°C° 0 mm 2 mps 747 mmHg 44%
    13:00 +37°C° 0 mm 1 mps 747 mmHg 41%
    14:00 +37°C° 0 mm 1 mps 746 mmHg 42%
    15:00 +37°C° 0 mm 1 mps 745 mmHg 43%
    16:00 +36°C° 0 mm 1 mps 745 mmHg 43%
    17:00 +35°C° 0 mm 1 mps 745 mmHg 47%
    18:00 +33°C° 0 mm 1 mps 746 mmHg 51%
    19:00 +32°C° 0 mm 1 mps 746 mmHg 55%
    20:00 +31°C° 0 mm 1 mps 747 mmHg 60%
    21:00 +30°C° 0 mm 1 mps 747 mmHg 64%
    22:00 +28°C° 0 mm 0 mps 748 mmHg 69%
    23:00 +27°C° 0 mm 0 mps 747 mmHg 70%

    Day after tomorrow, 31 January, Friday

    Time Temperature Precipitation Wind Pressure Humidity
    00:00 +29°C° 0 mm 1 mps 747 mmHg 70%
    01:00 +29°C° 0 mm 1 mps 747 mmHg 71%
    02:00 +28°C° 0 mm 1 mps 747 mmHg 73%
    03:00 +28°C° 0 mm 1 mps 747 mmHg 75%
    04:00 +27°C° 0 mm 1 mps 746 mmHg 77%
    05:00 +27°C° 0 mm 1 mps 747 mmHg 76%
    06:00 +28°C° 0 mm 2 mps 748 mmHg 75%
    07:00 +28°C° 0 mm 2 mps 748 mmHg 74%
    08:00 +30°C° 0 mm 2 mps 749 mmHg 67%
    09:00 +32°C° 0 mm 2 mps 749 mmHg 60%
    10:00 +35°C° 0 mm 3 mps 749 mmHg 53%
    11:00 +36°C° 0 mm 2 mps 748 mmHg 48%
    12:00 +38°C° 0 mm 2 mps 748 mmHg 44%
    13:00 +39°C° 0 mm 1 mps 747 mmHg 39%
    14:00 +38°C° 0.2 mm 2 mps 746 mmHg 45%
    15:00 +36°C° 0.2 mm 2 mps 746 mmHg 51%
    16:00 +34°C° 0.2 mm 2 mps 745 mmHg 57%
    17:00 +31°C° 1.5 mm 2 mps 745 mmHg 66%
    18:00 +29°C° 1.5 mm 2 mps 746 mmHg 75%
    19:00 +27°C° 1.5 mm 2 mps 746 mmHg 84%
    20:00 +28°C° 0.2 mm 2 mps 747 mmHg 82%
    21:00 +28°C° 0.2 mm 1 mps 747 mmHg 80%
    22:00 +28°C° 0.2 mm 1 mps 748 mmHg 78%
    23:00 +28°C° 0.2 mm 1 mps 747 mmHg 79%

    1 February, Saturday

    Time Temperature Precipitation Wind Pressure Humidity
    00:00 +27°C° 0.2 mm 1 mps 747 mmHg 79%
    01:00 +27°C° 0.2 mm 1 mps 747 mmHg 79%
    02:00 +27°C° 0 mm 1 mps 747 mmHg 81%
    03:00 +26°C° 0 mm 1 mps 747 mmHg 83%
    04:00 +26°C° 0 mm 1 mps 747 mmHg 85%
    05:00 +26°C° 0 mm 2 mps 747 mmHg 83%
    06:00 +27°C° 0 mm 2 mps 748 mmHg 81%
    07:00 +27°C° 0 mm 3 mps 748 mmHg 80%
    08:00 +30°C° 0 mm 3 mps 749 mmHg 70%
    09:00 +33°C° 0 mm 3 mps 749 mmHg 60%
    10:00 +35°C° 0 mm 3 mps 749 mmHg 51%
    11:00 +36°C° 0 mm 3 mps 748 mmHg 47%
    12:00 +38°C° 0 mm 2 mps 747 mmHg 43%
    13:00 +39°C° 0 mm 2 mps 747 mmHg 40%
    14:00 +38°C° 0 mm 2 mps 746 mmHg 42%
    15:00 +36°C° 0 mm 1 mps 745 mmHg 44%
    16:00 +36°C° 0 mm 1 mps 744 mmHg 46%
    17:00 +34°C° 0 mm 1 mps 745 mmHg 50%
    18:00 +33°C° 0 mm 1 mps 745 mmHg 54%
    19:00 +31°C° 0 mm 1 mps 746 mmHg 58%
    20:00 +31°C° 0 mm 1 mps 746 mmHg 58%
    21:00 +31°C° 0 mm 1 mps 747 mmHg 59%
    22:00 +31°C° 0 mm 2 mps 747 mmHg 59%
    23:00 +30°C° 0 mm 2 mps 747 mmHg 60%

    2 February, Sunday

    Time Temperature Precipitation Wind Pressure Humidity
    00:00 +29°C° 0 mm 2 mps 746 mmHg 61%
    01:00 +29°C° 0 mm 2 mps 746 mmHg 62%
    02:00 +28°C° 0 mm 2 mps 746 mmHg 64%
    03:00 +28°C° 0 mm 2 mps 746 mmHg 67%
    04:00 +27°C° 0 mm 2 mps 746 mmHg 69%
    05:00 +27°C° 0 mm 2 mps 747 mmHg 70%
    06:00 +28°C° 0 mm 2 mps 747 mmHg 71%
    07:00 +28°C° 0 mm 2 mps 748 mmHg 72%
    08:00 +30°C° 0 mm 2 mps 748 mmHg 65%
    09:00 +32°C° 0 mm 2 mps 749 mmHg 58%
    10:00 +35°C° 0 mm 2 mps 749 mmHg 51%
    11:00 +36°C° 0.1 mm 2 mps 748 mmHg 50%
    12:00 +36°C° 0.1 mm 2 mps 747 mmHg 48%
    13:00 +36°C° 0.1 mm 1 mps 746 mmHg 47%
    14:00 +35°C° 0 mm 1 mps 746 mmHg 49%
    15:00 +35°C° 0 mm 1 mps 745 mmHg 50%
    16:00 +35°C° 0 mm 1 mps 745 mmHg 52%
    17:00 +33°C° 0 mm 1 mps 745 mmHg 55%
    18:00 +32°C° 0 mm 1 mps 746 mmHg 58%
    19:00 +31°C° 0 mm 1 mps 746 mmHg 61%
    20:00 +31°C° 0 mm 1 mps 746 mmHg 61%
    21:00 +30°C° 0 mm 1 mps 747 mmHg 61%
    22:00 +30°C° 0 mm 1 mps 748 mmHg 61%
    23:00 +30°C° 0 mm 1 mps 748 mmHg 62%

    3 February, Monday

    Time Temperature Precipitation Wind Pressure Humidity
    00:00 +29°C° 0 mm 1 mps 747 mmHg 62%
    01:00 +29°C° 0 mm 1 mps 747 mmHg 63%
    02:00 +28°C° 0 mm 1 mps 747 mmHg 63%
    03:00 +28°C° 0 mm 1 mps 747 mmHg 63%
    04:00 +27°C° 0 mm 1 mps 747 mmHg 63%
    05:00 +27°C° 0 mm 1 mps 747 mmHg 64%
    06:00 +28°C° 0 mm 2 mps 748 mmHg 66%
    07:00 +28°C° 0 mm 2 mps 749 mmHg 67%
    08:00 +30°C° 0 mm 2 mps 749 mmHg 62%
    09:00 +32°C° 0 mm 2 mps 749 mmHg 56%
    10:00 +35°C° 0 mm 2 mps 749 mmHg 51%
    11:00 +35°C° 0 mm 1 mps 749 mmHg 48%
    12:00 +36°C° 0 mm 1 mps 748 mmHg 45%
    13:00 +37°C° 0 mm 1 mps 747 mmHg 41%
    14:00 +37°C° 0 mm 1 mps 747 mmHg 42%
    15:00 +37°C° 0 mm 1 mps 746 mmHg 43%
    16:00 +36°C° 0 mm 1 mps 746 mmHg 44%
    17:00 +35°C° 0 mm 1 mps 746 mmHg 49%
    18:00 +33°C° 0 mm 1 mps 746 mmHg 53%
    19:00 +31°C° 0 mm 1 mps 747 mmHg 58%
    20:00 +31°C° 0 mm 1 mps 747 mmHg 59%
    21:00 +31°C° 0 mm 1 mps 748 mmHg 60%
    22:00 +30°C° 0 mm 1 mps 748 mmHg 61%
    23:00 +30°C° 0 mm 1 mps 748 mmHg 61%
    Show more